{"data":{"norad_id":58870,"epoch":"2026-09-20T04:35:56.740416Z","epoch_age_seconds":179155,"freshness":"STALE","line1":"1 58870U 24019T   26263.19162894  .00001093  00000+0  49225-4 0  9991","line2":"2 58870  43.0016 230.0787 0001329 269.0016  91.0684 15.27578688148817","mean_motion":15.27578688,"eccentricity":0.0001329,"inclination_deg":43.0016,"raan_deg":230.0787,"arg_perigee_deg":269.0016,"mean_anomaly_deg":91.0684,"bstar":4.9225e-5,"rev_number":14881,"period_min":94.266829677058,"perigee_km":482.14117248818,"apogee_km":483.96487679673,"semimajor_km":6861.1900246425,"source":"CELESTRAK","updated_at":"2026-09-21T09:00:33.990398Z"}}